Weather History for Springfield, OH

Change the Weather History Date:

Monday, March 4, 2013

  Actual Average (KDAY) Record (KDAY)
Temperature  
Mean Temperature 25 °F 36 °F  
Max Temperature 36 °F 45 °F 77 °F (1976)
Min Temperature 14 °F 27 °F 1 °F (2002)
Degree Days  
Heating Degree Days 40 29  
Month to date heating degree days 118  
Since 1 July heating degree days 4393  
Cooling Degree Days 0 0  
Month to date cooling degree days 0  
Year to date cooling degree days 0  
Moisture  
Dew Point 18 °F    
Average Humidity 70    
Maximum Humidity 89    
Minimum Humidity 44    
Precipitation  
Precipitation 0.05 in 0.08 in 2.87 in (1964)
Month to date precipitation 0.34  
Year to date precipitation 5.29  
Snow  
Snow 0.00 in 0.10 in 3.30 in (1993)
Month to date snowfall 0.6  
Since 1 July snowfall 19.9  
Snow Depth -    
Sea Level Pressure  
Sea Level Pressure 30.12 in    
Wind  
Wind Speed 4 mph (SE)    
Max Wind Speed 8 mph    
Max Gust Speed -    
Visibility 6 miles    
Events Rain , Snow    
T = Trace of Precipitation, MM = Missing Value Source: NWS Daily Summary

Daily Weather History Graph

Daily Weather History Graph

Search for Another Location

Airport:

Trip Planner

Search our weather history database for the weather conditions in past years. The results will help you decide how hot, cold, wet, or windy it might be!

Date:

Astronomy

Mar. 04, 2013 Rise Set
Actual Time 7:03 AM EST 6:30 PM EST
Civil Twilight 6:36 AM EST 6:57 PM EST
Nautical Twilight 6:05 AM EST 7:29 PM EST
Astronomical Twilight 5:34 AM EST 8:00 PM EST
Moon 1:11 AM EST (3/4) 11:12 AM EST (3/4)
Length of Visible Light 12h 21m
Length of Day
11h 27m
Waning Gibbous, 52% of the Moon is Illuminated
Mar 4
Waning Gibbous
Mar 4
Last Quarter
Mar 11
New
Mar 19
First Quarter
Mar 27
Full

Hourly Weather History & Observations

Time (EST) Temp. Windchill Dew Point Humidity Pressure Visibility Wind Dir Wind Speed Gust Speed Precip Events Conditions
12:56 AM 22.1 °F 15.9 °F 13.1 °F 68% 30.12 in 8.0 mi West 4.6 mph - N/A   Clear
1:56 AM 18.1 °F 11.3 °F 12.0 °F 77% 30.14 in 8.0 mi West 4.6 mph - N/A   Clear
2:56 AM 18.1 °F 11.3 °F 12.0 °F 77% 30.13 in 7.0 mi West 4.6 mph - N/A   Clear
3:56 AM 16.2 °F 9.0 °F 12.0 °F 84% 30.14 in 7.0 mi West 4.6 mph - N/A   Clear
4:56 AM 18.1 °F 12.9 °F 13.1 °F 81% 30.15 in 8.0 mi WSW 3.5 mph - N/A   Clear
5:56 AM 15.1 °F - 12.0 °F 88% 30.17 in 7.0 mi Calm Calm - N/A   Clear
6:56 AM 14.0 °F 8.2 °F 11.1 °F 88% 30.19 in 6.0 mi West 3.5 mph - N/A   Clear
7:56 AM 17.1 °F 11.7 °F 14.0 °F 88% 30.19 in 5.0 mi West 3.5 mph - N/A   Clear
8:56 AM 23.0 °F - 16.2 °F 75% 30.20 in 6.0 mi Calm Calm - N/A   Haze
9:56 AM 27.1 °F 20.7 °F 17.1 °F 66% 30.19 in 7.0 mi SW 5.8 mph - N/A   Clear
10:56 AM 29.1 °F 24.1 °F 16.2 °F 58% 30.18 in 7.0 mi Variable 4.6 mph - N/A   Clear
11:56 AM 31.1 °F - 15.1 °F 52% 30.17 in 7.0 mi Calm Calm - N/A   Clear
12:56 PM 32.0 °F - 13.1 °F 46% 30.15 in 7.0 mi Calm Calm - N/A   Clear
1:56 PM 34.9 °F - 15.1 °F 44% 30.12 in 7.0 mi Calm Calm - N/A   Clear
2:56 PM 36.0 °F 30.3 °F 16.2 °F 45% 30.11 in 7.0 mi SSE 6.9 mph - N/A   Clear
3:56 PM 36.0 °F 32.1 °F 17.1 °F 46% 30.10 in 7.0 mi South 4.6 mph - N/A   Clear
4:56 PM 36.0 °F 32.1 °F 17.1 °F 46% 30.09 in 7.0 mi ESE 4.6 mph - N/A   Scattered Clouds
5:56 PM 34.0 °F 28.8 °F 20.1 °F 57% 30.09 in 7.0 mi ESE 5.8 mph - N/A   Partly Cloudy
6:56 PM 32.0 °F 27.5 °F 20.1 °F 62% 30.10 in 8.0 mi East 4.6 mph - N/A   Partly Cloudy
7:56 PM 32.9 °F 27.5 °F 21.0 °F 62% 30.09 in 8.0 mi East 5.8 mph - N/A   Mostly Cloudy
8:56 PM 32.0 °F 26.4 °F 22.1 °F 67% 30.07 in 7.0 mi ESE 5.8 mph - 0.00 in   Overcast
9:27 PM 32.0 °F 26.4 °F 24.8 °F 75% 30.04 in 3.0 mi ESE 5.8 mph - 0.01 in Rain Light Freezing Rain
9:48 PM 30.2 °F 22.6 °F 24.8 °F 80% 30.04 in 5.0 mi ESE 8.1 mph - 0.01 in Rain Light Freezing Rain
9:56 PM 31.1 °F 23.7 °F 25.2 °F 79% 30.08 in 5.0 mi East 8.1 mph - 0.01 in   Overcast
10:10 PM 30.2 °F 23.4 °F 24.8 °F 80% 30.04 in 4.0 mi East 6.9 mph - 0.01 in Rain Light Freezing Rain
10:56 PM 31.1 °F 23.7 °F 26.1 °F 82% 30.09 in 4.0 mi ESE 8.1 mph - 0.02 in Rain Light Freezing Rain
11:34 PM 30.2 °F 26.7 °F 26.6 °F 86% 30.07 in 4.0 mi ESE 3.5 mph - 0.01 in Rain Light Freezing Rain
11:42 PM 30.2 °F 26.7 °F 26.6 °F 86% 30.07 in 4.0 mi East 3.5 mph - 0.01 in   Overcast
11:56 PM 30.0 °F 26.5 °F 27.1 °F 89% 30.11 in 4.0 mi ENE 3.5 mph - 0.02 in Snow Light Snow